GW4386 Weather Reports


Display with metric or nautical units.
time (UTC)temp
F
wind
direction
speed
MPH
gust
MPH
rain 1hr
in
rain 24hr
in
rain mn
in
humidity
%
barometer
mb
20260508093603 55 36 3.0 13.0 0.00 0.00 0.00 65 1021.2
20260508093104 54 49 6.0 13.0 0.00 0.00 0.00 65 1021.2
20260508092600 54 28 4.0 10.0 0.00 0.00 0.00 66 1021.2
20260508092103 54 345 3.0 10.0 0.00 0.00 0.00 66 1021.2
20260508092001 54 28 4.0 10.0 0.00 0.00 0.00 67 1021.3
20260508091620 53 304 3.0 11.0 0.00 0.00 0.00 68 1021.3
20260508091100 53 55 5.0 11.0 0.00 0.00 0.00 68 1021.4
20260508090606 53 25 3.0 7.0 0.00 0.00 0.00 69 1021.4
20260508090110 53 77 4.0 11.0 0.00 0.00 0.00 70 1021.3
20260508085602 53 123 3.0 11.0 0.00 0.00 0.00 71 1021.4
20260508085059 53 20 4.0 10.0 0.00 0.00 0.00 71 1021.3
20260508084559 53 48 2.0 11.0 0.00 0.00 0.00 71 1021.3
20260508084059 52 40 4.0 12.0 0.00 0.00 0.00 72 1021.2
20260508083559 52 38 7.0 12.0 0.00 0.00 0.00 72 1021.3
20260508083111 51 57 2.0 12.0 0.00 0.00 0.00 74 1021.3
20260508082600 51 15 3.0 12.0 0.00 0.00 0.00 74 1021.4
20260508082059 51 54 5.0 11.0 0.00 0.00 0.00 74 1021.4
20260508081602 51 20 3.0 10.0 0.00 0.00 0.00 74 1021.4
20260508081102 51 43 4.0 10.0 0.00 0.00 0.00 74 1021.4
20260508080559 51 59 3.0 10.0 0.00 0.00 0.00 74 1021.3
20260508080109 51 10 3.0 9.0 0.00 0.00 0.00 74 1021.3
20260508075558 51 55 3.0 7.0 0.00 0.00 0.00 75 1021.3
20260508075100 51 26 3.0 6.0 0.00 0.00 0.00 74 1021.3
20260508074600 50 57 3.0 6.0 0.00 0.00 0.00 76 1021.3
20260508074059 50 16 4.0 10.0 0.00 0.00 0.00 75 1021.3
20260508073559 50 34 4.0 10.0 0.00 0.00 0.00 76 1021.3
20260508073100 50 43 4.0 8.0 0.00 0.00 0.00 76 1021.3
20260508072558 50 15 2.0 9.0 0.00 0.00 0.00 77 1021.2
20260508072058 50 90 4.0 9.0 0.00 0.00 0.00 77 1021.2
20260508071603 50 52 2.0 9.0 0.00 0.00 0.00 78 1021.1
20260508071058 49 44 4.0 9.0 0.00 0.00 0.00 79 1021.1
20260508070600 49 319 3.0 6.0 0.00 0.00 0.00 79 1021.1
20260508070143 49 65 3.0 7.0 0.00 0.00 0.00 80 1021.0
20260508065558 48 45 1.0 7.0 0.00 0.00 0.00 81 1021.0
20260508065058 48 336 1.0 6.0 0.00 0.00 0.00 82 1020.9
20260508064613 48 25 4.0 9.0 0.00 0.00 0.00 82 1020.9
20260508064103 48 48 4.0 9.0 0.00 0.00 0.00 82 1020.9
20260508063558 48 57 4.0 9.0 0.00 0.00 0.00 83 1021.0
20260508063058 48 48 0.0 4.0 0.00 0.00 0.00 83 1021.0
20260508062559 48 36 1.0 4.0 0.00 0.00 0.00 83 1020.9
20260508062058 47 69 1.0 6.0 0.00 0.00 0.00 83 1020.9
20260508061605 47 308 2.0 8.0 0.00 0.00 0.00 84 1020.8
20260508061100 47 12 3.0 8.0 0.00 0.00 0.00 84 1020.8
20260508060559 47 46 3.0 7.0 0.00 0.00 0.00 84 1020.8
20260508060058 47 61 1.0 6.0 0.00 0.00 0.00 84 1020.8
20260508060001 47 39 1.0 6.0 0.00 0.00 0.00 84 1020.8
20260508055559 47 129 2.0 6.0 0.00 0.00 0.00 85 1020.7
20260508055059 47 15 1.0 6.0 0.00 0.00 0.00 85 1020.7
20260508054559 47 11 2.0 7.0 0.00 0.00 0.00 85 1020.7
20260508054102 47 64 2.0 7.0 0.00 0.00 0.00 85 1020.6
20260508053558 46 24 1.0 7.0 0.00 0.00 0.00 85 1020.6
20260508053106 46 48 3.0 6.0 0.00 0.00 0.00 85 1020.6
20260508052559 46 54 2.0 6.0 0.00 0.00 0.00 85 1020.7
20260508052058 46 52 2.0 6.0 0.00 0.00 0.00 85 1020.6
20260508051558 46 45 2.0 11.0 0.00 0.00 0.00 85 1020.6
20260508051101 46 29 4.0 9.0 0.00 0.00 0.00 85 1020.6
20260508050559 46 313 1.0 10.0 0.00 0.00 0.00 85 1020.6
20260508045559 46 34 1.0 7.0 0.00 0.00 0.00 85 1020.6
20260508045101 46 55 3.0 7.0 0.00 0.00 0.00 85 1020.6
20260508044600 46 338 2.0 8.0 0.00 0.00 0.00 85 1020.6
20260508044058 46 319 1.0 5.0 0.00 0.00 0.00 85 1020.6
20260508043558 45 38 3.0 5.0 0.00 0.00 0.00 85 1020.5
20260508043105 45 347 2.0 4.0 0.00 0.00 0.00 85 1020.5
20260508042559 45 65 1.0 4.0 0.00 0.00 0.00 85 1020.4
20260508042058 45 24 1.0 5.0 0.00 0.00 0.00 85 1020.4
20260508041559 45 336 1.0 5.0 0.00 0.00 0.00 85 1020.4
20260508041101 45 331 1.0 5.0 0.00 0.00 0.00 85 1020.4
20260508040602 45 13 1.0 3.0 0.00 0.00 0.00 85 1020.4
20260508040058 45 336 0.0 3.0 0.00 0.00 0.00 85 1020.4
20260508040000 45 63 0.0 4.0 0.00 0.00 0.00 85 1020.4
20260508035602 45 32 0.0 4.0 0.00 0.00 0.00 85 1020.3
20260508035059 45 71 1.0 4.0 0.00 0.00 0.00 85 1020.2
20260508034559 45 38 2.0 4.0 0.00 0.00 0.00 85 1020.1
20260508034058 45 22 1.0 4.0 0.00 0.00 0.00 85 1020.2
20260508033558 45 65 0.0 4.0 0.00 0.00 0.00 85 1020.1
20260508033059 45 333 1.0 3.0 0.00 0.00 0.00 85 1020.1
20260508032600 45 63 0.0 2.0 0.00 0.00 0.00 85 1020.1
20260508032101 45 38 0.0 3.0 0.00 0.00 0.00 84 1020.1
20260508031600 45 38 0.0 3.0 0.00 0.00 0.00 84 1020.2
20260508031104 45 32 0.0 2.0 0.00 0.00 0.00 84 1020.2
20260508030559 45 319 0.0 3.0 0.00 0.00 0.00 84 1020.3
20260508025558 45 304 1.0 3.0 0.00 0.00 0.00 84 1020.2
20260508025059 45 42 0.0 3.0 0.00 0.00 0.00 84 1020.2
20260508024602 45 68 0.0 7.0 0.00 0.00 0.00 83 1020.2
20260508024102 45 45 1.0 7.0 0.00 0.00 0.00 83 1020.1
20260508023558 45 50 0.0 4.0 0.00 0.00 0.00 83 1020.1
20260508023059 45 53 1.0 6.0 0.00 0.00 0.00 83 1020.0
20260508022601 45 61 1.0 6.0 0.00 0.00 0.00 83 1019.9
20260508022059 45 38 2.0 5.0 0.00 0.00 0.00 83 1019.9
20260508021559 45 41 1.0 6.0 0.00 0.00 0.00 83 1019.9
20260508021101 45 34 2.0 6.0 0.00 0.00 0.00 83 1019.8
20260508020604 45 68 1.0 5.0 0.00 0.00 0.00 83 1019.8
20260508020059 45 24 0.0 5.0 0.00 0.00 0.00 82 1019.9
20260508015559 45 326 0.0 6.0 0.00 0.00 0.00 82 1019.8
20260508015059 45 13 2.0 6.0 0.00 0.00 0.00 82 1019.9
20260508015002 45 50 2.0 6.0 0.00 0.00 0.00 82 1019.9
20260508014558 45 59 0.0 5.0 0.00 0.00 0.00 82 1019.9
20260508014059 45 331 3.0 5.0 0.00 0.00 0.00 82 1019.8
20260508013559 45 59 0.0 5.0 0.00 0.00 0.00 82 1019.9
20260508013106 45 50 2.0 5.0 0.00 0.00 0.00 82 1019.8
20260508012559 45 11 1.0 4.0 0.00 0.00 0.00 82 1019.9
20260508012100 45 42 1.0 4.0 0.00 0.00 0.00 82 1019.9
20260508011558 45 322 1.0 7.0 0.00 0.00 0.00 82 1019.9
20260508011058 45 321 3.0 7.0 0.00 0.00 0.00 81 1019.9
20260508010558 45 329 1.0 4.0 0.00 0.00 0.00 81 1019.9
20260508010059 45 38 1.0 5.0 0.00 0.00 0.00 81 1019.8
20260508010001 45 59 2.0 5.0 0.00 0.00 0.00 81 1019.8
20260508005559 46 65 0.0 4.0 0.00 0.00 0.00 81 1019.8
20260508005101 46 18 2.0 4.0 0.00 0.00 0.00 81 1019.8
20260508004602 46 323 0.0 5.0 0.00 0.00 0.00 81 1019.8
20260508004058 46 69 1.0 5.0 0.00 0.00 0.00 81 1019.7
20260508003603 46 23 2.0 5.0 0.00 0.00 0.00 81 1019.7
20260508003059 46 296 0.0 4.0 0.00 0.00 0.00 81 1019.7
20260508002559 46 326 1.0 4.0 0.00 0.00 0.00 81 1019.7
20260508002058 46 66 0.0 4.0 0.00 0.00 0.00 81 1019.8
20260508001558 46 62 1.0 5.0 0.00 0.00 0.00 80 1019.8
20260508001058 46 51 0.0 5.0 0.00 0.00 0.00 80 1019.8
20260508000558 46 51 1.0 4.0 0.00 0.00 0.00 80 1019.8
20260508000058 46 62 1.0 5.0 0.00 0.00 0.00 80 1019.8
20260507235559 46 57 1.0 6.0 0.00 0.00 0.00 80 1019.9
20260507235100 46 59 1.0 6.0 0.00 0.00 0.00 80 1019.8
20260507234600 46 350 1.0 5.0 0.00 0.00 0.00 80 1019.8
20260507234059 46 55 1.0 5.0 0.00 0.00 0.00 79 1019.8
20260507233558 46 83 0.0 4.0 0.00 0.00 0.00 79 1019.8
20260507233059 46 313 0.0 6.0 0.00 0.00 0.00 79 1019.8
20260507232603 46 13 2.0 6.0 0.00 0.00 0.00 79 1019.7
20260507232058 46 38 3.0 5.0 0.00 0.00 0.00 79 1019.8
20260507231559 46 10 1.0 4.0 0.00 0.00 0.00 79 1019.7
20260507231101 46 55 0.0 7.0 0.00 0.00 0.00 78 1019.8
20260507230559 46 29 2.0 10.0 0.00 0.00 0.00 78 1019.7
20260507230108 46 53 3.0 10.0 0.00 0.00 0.00 78 1019.8
20260507225559 46 57 1.0 5.0 0.00 0.00 0.00 78 1019.8
20260507225101 46 98 1.0 6.0 0.00 0.00 0.00 78 1019.8
20260507224600 46 55 2.0 7.0 0.00 0.00 0.00 78 1019.8
20260507224057 46 55 2.0 9.0 0.00 0.00 0.00 78 1019.7
20260507223601 46 57 2.0 8.0 0.00 0.00 0.00 78 1019.8
20260507223058 46 313 1.0 6.0 0.00 0.00 0.00 78 1019.8
20260507222601 46 68 2.0 8.0 0.00 0.00 0.00 78 1019.7
20260507222058 46 342 2.0 8.0 0.00 0.00 0.00 79 1019.7
20260507221602 46 309 1.0 5.0 0.00 0.00 0.00 79 1019.7
20260507221100 46 321 2.0 5.0 0.00 0.00 0.00 79 1019.7
20260507220558 46 22 2.0 6.0 0.00 0.00 0.00 79 1019.6
20260507220059 46 15 3.0 7.0 0.00 0.00 0.00 79 1019.6
20260507215600 46 350 3.0 7.0 0.00 0.00 0.00 80 1019.7
20260507215059 46 314 2.0 4.0 0.00 0.00 0.00 80 1019.7
20260507214606 46 17 1.0 5.0 0.00 0.00 0.00 80 1019.7
20260507214100 46 39 0.0 5.0 0.00 0.00 0.00 80 1019.6
20260507213559 46 44 1.0 5.0 0.00 0.00 0.00 80 1019.5
20260507213107 46 43 3.0 5.0 0.00 0.00 0.00 80 1019.5
20260507212559 46 49 1.0 5.0 0.00 0.00 0.00 80 1019.5
20260507212100 46 20 2.0 8.0 0.00 0.00 0.00 80 1019.5
20260507211604 46 333 1.0 9.0 0.00 0.00 0.00 80 1019.5
20260507211100 46 336 1.0 9.0 0.00 0.00 0.00 80 1019.4
20260507210559 46 317 1.0 4.0 0.00 0.00 0.00 81 1019.4
20260507210100 46 294 0.0 4.0 0.00 0.00 0.00 81 1019.4
20260507205601 46 29 2.0 4.0 0.00 0.00 0.00 81 1019.4
20260507205104 46 56 0.0 5.0 0.00 0.00 0.00 81 1019.4
20260507204603 47 16 0.0 3.0 0.00 0.00 0.00 81 1019.4
20260507204503 47 17 0.0 3.0 0.00 0.00 0.00 81 1019.4
20260507204102 47 289 0.0 3.0 0.00 0.00 0.00 80 1019.4
20260507204001 47 319 0.0 3.0 0.00 0.00 0.00 80 1019.4
20260507203600 47 317 0.0 3.0 0.00 0.00 0.00 80 1019.4
20260507203101 47 17 1.0 5.0 0.00 0.00 0.00 80 1019.3
20260507202501 47 65 2.0 5.0 0.00 0.00 0.00 80 1019.2
20260507202101 47 78 2.0 4.0 0.00 0.00 0.00 80 1019.2
20260507201605 47 336 1.0 4.0 0.00 0.00 0.00 80 1019.1
20260507201501 47 39 1.0 4.0 0.00 0.00 0.00 80 1019.2
20260507201101 47 326 0.0 5.0 0.00 0.00 0.00 80 1019.1
20260507201001 47 76 1.0 5.0 0.00 0.00 0.00 80 1019.0
20260507200600 47 39 2.0 6.0 0.00 0.00 0.00 79 1019.0
20260507195601 47 38 1.0 5.0 0.00 0.00 0.00 79 1018.9
20260507195100 47 16 2.0 4.0 0.00 0.00 0.00 79 1018.9
20260507194608 47 50 1.0 9.0 0.00 0.00 0.00 78 1019.0
20260507194103 48 312 3.0 9.0 0.00 0.00 0.00 78 1018.9
20260507193602 48 320 1.0 9.0 0.00 0.00 0.00 78 1018.9
20260507193059 48 57 2.0 9.0 0.00 0.00 0.00 77 1018.9
20260507193001 48 19 3.0 10.0 0.00 0.00 0.00 77 1018.9
20260507192559 48 38 3.0 11.0 0.00 0.00 0.00 77 1018.9
20260507192059 48 13 5.0 11.0 0.00 0.00 0.00 77 1018.8
20260507191617 48 317 3.0 9.0 0.00 0.00 0.00 77 1018.6
20260507191059 48 41 2.0 6.0 0.00 0.00 0.00 77 1018.5
20260507190600 48 344 3.0 10.0 0.00 0.00 0.00 77 1018.4
20260507190100 48 42 5.0 10.0 0.00 0.00 0.00 77 1018.3
20260507190006 48 324 5.0 10.0 0.00 0.00 0.00 77 1018.3
20260507185559 48 38 3.0 10.0 0.00 0.00 0.00 77 1018.3
20260507185100 48 32 4.0 10.0 0.00 0.00 0.00 77 1018.3
20260507184501 48 42 4.0 10.0 0.00 0.00 0.00 77 1018.2
20260507184100 48 27 4.0 10.0 0.00 0.00 0.00 76 1018.3
20260507184001 48 39 3.0 10.0 0.00 0.00 0.00 76 1018.2
20260507183600 49 42 5.0 11.0 0.00 0.00 0.00 76 1018.3
20260507183104 49 49 6.0 12.0 0.00 0.00 0.00 76 1018.2
20260507182603 49 19 4.0 14.0 0.00 0.00 0.00 77 1018.1
20260507182100 49 38 5.0 14.0 0.00 0.00 0.00 77 1018.0
20260507182002 49 36 5.0 14.0 0.00 0.00 0.00 77 1017.9
20260507181600 49 307 5.0 14.0 0.00 0.00 0.00 78 1017.9
20260507181100 49 43 3.0 6.0 0.00 0.00 0.00 78 1017.8
20260507180601 49 341 3.0 6.0 0.00 0.00 0.00 77 1017.7
20260507180501 49 51 4.0 7.0 0.00 0.00 0.00 77 1017.6
20260507180106 49 61 2.0 7.0 0.00 0.00 0.00 77 1017.6
20260507175559 49 34 2.0 7.0 0.00 0.00 0.00 77 1017.6
20260507175100 49 32 4.0 9.0 0.00 0.00 0.00 77 1017.5
20260507174600 49 70 3.0 9.0 0.00 0.00 0.00 77 1017.4
20260507174103 49 331 3.0 9.0 0.00 0.00 0.00 76 1017.4
20260507173601 49 57 3.0 12.0 0.00 0.00 0.00 76 1017.4
20260507173059 50 30 7.0 12.0 0.00 0.00 0.00 76 1017.4
20260507172600 50 29 2.0 8.0 0.00 0.00 0.00 76 1017.4
20260507172100 50 23 4.0 9.0 0.00 0.00 0.00 76 1017.3
20260507171559 50 52 2.0 9.0 0.00 0.00 0.00 77 1017.3
20260507171059 50 41 3.0 9.0 0.00 0.00 0.00 77 1017.3
20260507170600 50 338 4.0 9.0 0.00 0.00 0.00 78 1017.2
20260507165559 50 49 1.0 6.0 0.00 0.00 0.00 78 1017.2
20260507165059 50 17 3.0 6.0 0.00 0.00 0.00 78 1017.0
20260507164631 50 322 1.0 5.0 0.00 0.00 0.00 78 1017.1
20260507164059 50 5 1.0 5.0 0.00 0.00 0.00 78 1017.1
20260507163600 50 336 2.0 5.0 0.00 0.00 0.00 77 1017.1
20260507163101 50 298 1.0 4.0 0.00 0.00 0.00 77 1017.1
20260507162600 50 347 0.0 6.0 0.00 0.00 0.00 77 1017.1
20260507162059 50 336 2.0 7.0 0.00 0.00 0.00 76 1017.1
20260507161607 51 304 1.0 6.0 0.00 0.00 0.00 76 1017.1
20260507161100 51 321 1.0 5.0 0.00 0.00 0.00 76 1017.1
20260507160559 51 25 2.0 4.0 0.00 0.00 0.00 76 1017.1
20260507160100 51 82 0.0 3.0 0.00 0.00 0.00 76 1017.1
20260507160003 51 71 0.0 3.0 0.00 0.00 0.00 76 1017.1
20260507155559 51 41 0.0 6.0 0.00 0.00 0.00 76 1017.1
20260507155059 51 22 1.0 6.0 0.00 0.00 0.00 76 1017.1
20260507154559 51 105 1.0 7.0 0.00 0.00 0.00 77 1017.0
20260507154059 51 41 2.0 7.0 0.00 0.00 0.00 77 1017.0
20260507153600 51 46 4.0 10.0 0.00 0.00 0.00 76 1016.9
20260507153059 51 68 4.0 10.0 0.00 0.00 0.00 77 1016.9
20260507152559 51 41 2.0 11.0 0.00 0.00 0.00 78 1016.8
20260507152103 51 28 4.0 12.0 0.00 0.00 0.00 78 1016.8
20260507151604 51 23 4.0 12.0 0.00 0.00 0.00 78 1016.7
20260507151059 51 19 4.0 11.0 0.00 0.00 0.00 77 1016.7
20260507150558 51 25 4.0 9.0 0.00 0.00 0.00 77 1016.7
20260507150059 51 17 4.0 9.0 0.00 0.00 0.00 76 1016.7
20260507150001 51 38 3.0 9.0 0.00 0.00 0.00 76 1016.7
20260507145601 51 51 5.0 11.0 0.00 0.00 0.00 75 1016.7
20260507145100 51 38 5.0 11.0 0.00 0.00 0.00 75 1016.7
20260507144604 51 61 1.0 9.0 0.00 0.00 0.00 75 1016.6
20260507144100 51 43 2.0 10.0 0.00 0.00 0.00 75 1016.5
20260507143559 51 346 3.0 9.0 0.00 0.00 0.00 75 1016.5
20260507143110 51 336 3.0 10.0 0.00 0.00 0.00 74 1016.5
20260507142600 52 350 4.0 9.0 0.00 0.00 0.00 74 1016.5
20260507142100 52 305 2.0 9.0 0.00 0.00 0.00 73 1016.6
20260507141624 52 53 3.0 11.0 0.00 0.00 0.00 73 1016.5
20260507141100 52 41 5.0 11.0 0.00 0.00 0.00 73 1016.5
20260507140602 52 20 3.0 8.0 0.00 0.00 0.00 73 1016.5
20260507140100 52 304 2.0 6.0 0.00 0.00 0.00 73 1016.6
20260507135600 52 350 3.0 9.0 0.00 0.00 0.00 73 1016.5
20260507135059 52 90 3.0 12.0 0.00 0.00 0.00 74 1016.5
20260507134612 52 349 2.0 7.0 0.00 0.00 0.00 74 1016.5
20260507134059 52 57 4.0 9.0 0.00 0.00 0.00 73 1016.4
20260507133559 52 329 3.0 9.0 0.00 0.00 0.00 74 1016.5
20260507133110 51 57 2.0 9.0 0.00 0.00 0.00 73 1016.5
20260507132559 51 39 4.0 9.0 0.00 0.00 0.00 74 1016.3
20260507132102 51 59 2.0 8.0 0.00 0.00 0.00 74 1016.3
20260507131613 51 246 2.0 8.0 0.00 0.00 0.00 74 1016.3
20260507131059 52 50 3.0 7.0 0.00 0.00 0.00 74 1016.3
20260507130559 52 28 4.0 9.0 0.00 0.00 0.00 72 1016.2
20260507130059 52 74 5.0 9.0 0.00 0.00 0.00 72 1016.2
20260507130000 52 57 5.0 9.0 0.00 0.00 0.00 72 1016.2
20260507125600 52 52 3.0 9.0 0.00 0.00 0.00 72 1016.1
20260507125100 52 27 5.0 9.0 0.00 0.00 0.00 73 1016.0
20260507124600 52 57 5.0 9.0 0.00 0.00 0.00 73 1016.0
20260507124059 52 53 3.0 9.0 0.00 0.00 0.00 74 1015.9
20260507123600 52 63 2.0 7.0 0.00 0.00 0.00 75 1016.0
20260507123117 51 11 2.0 7.0 0.00 0.00 0.00 76 1015.9
20260507122601 51 314 1.0 5.0 0.00 0.00 0.00 77 1015.8
20260507122059 50 315 1.0 6.0 0.00 0.00 0.00 78 1015.8
20260507121600 50 311 1.0 9.0 0.00 0.00 0.00 77 1015.9
20260507121100 50 11 2.0 10.0 0.00 0.00 0.00 77 1016.0
20260507120558 50 42 3.0 10.0 0.00 0.00 0.00 77 1015.9
20260507120059 50 29 4.0 10.0 0.00 0.00 0.00 76 1015.9
20260507115600 51 311 2.0 7.0 0.00 0.00 0.00 76 1015.8
20260507115059 51 27 1.0 7.0 0.00 0.00 0.00 76 1015.8
20260507114601 51 98 3.0 7.0 0.00 0.00 0.00 76 1015.8
20260507114059 50 48 2.0 6.0 0.00 0.00 0.00 76 1015.8
20260507113559 50 41 2.0 12.0 0.00 0.00 0.00 77 1015.8
20260507113059 50 61 5.0 12.0 0.00 0.00 0.00 77 1015.7
20260507112600 50 47 5.0 9.0 0.00 0.00 0.00 77 1015.7
20260507112100 50 18 2.0 9.0 0.00 0.00 0.00 77 1015.8
20260507111600 50 59 4.0 9.0 0.00 0.00 0.00 77 1015.8
20260507111100 50 34 2.0 6.0 0.00 0.00 0.00 77 1015.7
20260507110600 51 51 0.0 10.0 0.00 0.00 0.00 78 1015.6
20260507110002 50 52 5.0 10.0 0.00 0.00 0.00 79 1015.5
20260507105559 49 343 1.0 13.0 0.00 0.00 0.00 79 1015.5
20260507105500 49 32 1.0 13.0 0.00 0.00 0.00 79 1015.5
20260507105059 49 46 5.0 13.0 0.00 0.00 0.00 79 1015.5
20260507104605 49 22 5.0 10.0 0.00 0.00 0.00 79 1015.4
20260507104101 49 59 3.0 10.0 0.00 0.00 0.00 80 1015.4
20260507103602 49 19 3.0 9.0 0.00 0.00 0.00 79 1015.4
20260507103059 49 78 3.0 9.0 0.00 0.00 0.00 80 1015.4
20260507102600 49 30 3.0 6.0 0.00 0.00 0.00 80 1015.2
20260507102105 49 323 3.0 11.0 0.00 0.00 0.00 79 1015.2
20260507101602 49 327 5.0 11.0 0.00 0.00 0.00 78 1015.2
20260507101102 49 336 3.0 10.0 0.00 0.00 0.00 78 1015.1
20260507100559 50 33 4.0 15.0 0.00 0.00 0.00 78 1014.9
20260507100504 50 107 4.0 15.0 0.00 0.00 0.00 78 1014.9
20260507095559 49 71 4.0 12.0 0.00 0.00 0.00 79 1015.0
20260507095100 49 51 7.0 12.0 0.00 0.00 0.00 80 1014.9
20260507094600 49 22 7.0 12.0 0.00 0.00 0.00 80 1015.0
20260507094103 49 31 6.0 12.0 0.00 0.00 0.00 80 1015.0